Overview Statistics Trail Chart Weather Telemetry Raw packets
 

This is the latest recevied weather packets stored in our database for station/object N5JXS. If no packets are shown the sender has not sent any weather packets the latest 10 day(s).

<< 66 67 68 69 70 71 72 >>
Time Temp. Humidity Pressure Rain* Wind** Luminosity Snow
1788156661 13.33° C 80% 1028.3 hPa 0 mm - 0 W/m² -
1788156356 12.78° C 82% 1028.2 hPa 0 mm - 0 W/m² -
1788156051 12.78° C 85% 1028.3 hPa 0 mm - 0 W/m² -
1788155746 12.78° C 86% 1028.5 hPa 0 mm - 0 W/m² -
1788155442 12.78° C 87% 1028.5 hPa 0 mm - 0 W/m² -
1788155141 12.78° C 86% 1028.6 hPa 0 mm - 0 W/m² -
1788154840 12.78° C 85% 1028.6 hPa 0 mm - 0 W/m² -
1788154539 12.78° C 86% 1028.6 hPa 0 mm - 0 W/m² -
1788154239 12.78° C 86% 1028.7 hPa 0 mm - 0 W/m² -
1788153938 12.78° C 87% 1028.5 hPa 0 mm - 0 W/m² -
1788153638 12.78° C 88% 1029 hPa 0 mm - 0 W/m² -
1788153336 12.78° C 88% 1028.7 hPa 1.78 mm - 0 W/m² -
1788153030 12.78° C 85% 1028.7 hPa 1.78 mm - 0 W/m² -
1788152729 13.33° C 86% 1028.6 hPa 0 mm - 0 W/m² -
1788152428 13.33° C 85% 1028.1 hPa 0 mm - 0 W/m² -
1788152122 13.33° C 84% 1028.3 hPa 0 mm - 0 W/m² -
1788151818 13.33° C 83% 1029 hPa 0 mm - 0 W/m² -
1788151513 13.33° C 82% 1028.6 hPa 0 mm - 0 W/m² -
1788151208 13.33° C 79% 1028.1 hPa 0 mm - 0 W/m² -
1788150908 13.33° C 81% 1028.5 hPa 0 mm - 0 W/m² -
1788150603 13.33° C 81% 1029.2 hPa 0 mm - 0 W/m² -
1788150303 13.89° C 81% 1029.1 hPa 1.27 mm - 0 W/m² -
1788149997 14.44° C 79% 1029.2 hPa 3.05 mm - 0 W/m² -
1788149693 15° C 75% 1029.3 hPa 3.05 mm - 0 W/m² -
1788149392 16.11° C 73% 1028.8 hPa 3.05 mm - 0 W/m² -

* Rain latest hour (hover to see other rain measurements)
** Current wind speed in m/s (hover to see current wind gust speed)